Regional Weather Roundup
Issued by NWS

Home | Current Version | Previous Version | Text Only | Print | Product List | Glossary On
Versions: 1 2 3 4 5 6 7 8 9 10 11 12 13 14 15 16 17 18 19 20 21 22 23 24 25 26 27 28 29 30 31 32 33 34 35 36 37 38 39 40 41 42 43 44 45 46 47 48 49 50
000
ASUS44 KJAN 181910
RWRMS

MISSISSIPPI HOURLY WEATHER ROUNDUP
NATIONAL WEATHER SERVICE JACKSON MS
200 PM CDT WED OCT 18 2017

NOTE: "FAIR: INDICATES FEW OR NO CLOUDS BELOW 12,000 FEET WITH NO
SIGNIFICANT WEATHER AND/OR OBSTRUCTIONS TO VISIBILITY.

MSZ001>002-007>008-010>013-018>021-025>028-034>036-182000-
NORTHWEST MISSISSIPPI

CITY           SKY/WX    TMP DP  RH WIND       PRES   REMARKS
BATESVILLE     FAIR      73  42  33 CALM      30.22F
CLARKSDALE       N/A     75  48  38 SE8       30.21F
CLEVELAND      FAIR      74  47  37 SE3       30.20F
GREENWOOD      SUNNY     76  46  34 NE5       30.20F
GREENVILLE     SUNNY     75  45  34 MISG      30.19F
OLIVE BRANCH   SUNNY    N/A N/A N/A S9        30.20F
OXFORD         FAIR      72  43  35 VRB7      30.24F
TUNICA           N/A    N/A N/A N/A S8        30.21F
WINONA         FAIR      72  46  39 CALM      30.21F
$$

MSZ003>006-009-014>017-022>024-029>033-037>039-182000-
NORTHEAST MISSISSIPPI

CITY           SKY/WX    TMP DP  RH WIND       PRES   REMARKS
COLUMBUS AFB   SUNNY     72  49  44 S7        30.23F
CORINTH        FAIR      72  45  37 S10       30.24F
GOLDN TRIANGLE SUNNY     71  44  37 VRB6      30.24F
STARKVILLE     FAIR      72  43  35 SE8       30.25F
TUPELO         SUNNY     71  42  35 E6        30.24F
$$

MSZ040-058-182000-
CENTRAL MISSISSIPPI

CITY           SKY/WX    TMP DP  RH WIND       PRES   REMARKS
JACKSON INTL   SUNNY     76  49  38 E5        30.20F
JACKSON HAWKNS SUNNY     75  50  41 SE9       30.20F
MADISON        FAIR      73  46  38 SE5       30.20F
MERIDIAN KEY   SUNNY     74  46  36 VRB3      30.22F
MERIDIAN NAS   SUNNY     74  43  32 SE7       30.22F
RAYMOND        FAIR      77  72  83 VRB5G12   30.19F
VICKSBURG VKS  CLEAR     77  52  41 VRB3      30.20F
$$

MSZ059>079-182000-
SOUTH MISSISSIPPI

CITY           SKY/WX    TMP DP  RH WIND       PRES   REMARKS
HATTIESBURG    SUNNY     75  54  47 VRB5      30.20F
LAUREL         FAIR      73  44  35 NE7       30.21F
MCCOMB         SUNNY     76  54  46 SE6       30.18F
NATCHEZ        SUNNY     76  56  49 VRB3      30.18F
PINE BELT      SUNNY     74  52  46 N7        30.21F
$$

MSZ080>082-182000-
COASTAL MISSISSIPPI

CITY           SKY/WX    TMP DP  RH WIND       PRES   REMARKS
BAY ST LOUIS   MOSUNNY   77  59  53 S3        30.17F
BILOXI         SUNNY     76  56  48 NE6       30.16F
PASCAGOULA     SUNNY     77  51  40 VRB7      30.17F
GULFPORT       SUNNY     78  56  46 VRB6      30.16F
$$

LAZ007>009-015>016-023>026-182000-
NORTHEAST LOUISIANA

CITY           SKY/WX    TMP DP  RH WIND       PRES   REMARKS
BASTROP        FAIR      78  47  33 E3        30.19F
TALLULAH/VBURG SUNNY     75  54  47 E7        30.19F
VIDALIA          N/A    N/A N/A N/A MISG      30.16F
$$



USA.gov is the U.S. government's official web portal to all federal, state and local government web resources and services.